Погода в Рейкьявике

Исландия     64°07′33″N   21°50′59″W
темп.,
°C
ветер,
м/с
пор.,
м/с
влажн.,
%
обл.,
%
осадки,
мм/ч
давл.,
гПа
погр.,
м
15 июня, вт
вт1500:00+4св236899 0.3 1013462
03:00+3св33706 0.0 1012248
06:00+3всв45685 0.0 1010372
09:00+6всв4656100 0.0 10091131
12:00+7всв7855100 0.0 10071537
15:00+8всв685198 0.0 10051649
18:00+8всв2357100 0.0 1004787
21:00+8ссз355196 0.0 1003873
16 июня, ср
ср1600:00+5ссв676485 0.0 1003513
03:00+4ссв4569100 0.0 1003377
06:00+4ссв346599 0.0 1003419
09:00+6ссв345187 0.0 1003674
12:00+8с344468 0.0 1003903
15:00+9ссз554850 0.0 1003847
18:00+9с775440 0.0 10041090
21:00+6ссв566019 0.0 1006814
17 июня, чт
чт1700:00+4ссв466711 0.0 1008675
03:00+3ссв467235 0.0 1009566
06:00+3ссв456938 0.0 1010661
09:00+4ссв346154 0.0 1010797
12:00+6с335671 0.0 1011962
15:00+7с335684 0.0 1010920
18:00+7ссз335498 0.0 1010951
21:00+7с335754 0.0 1010812
18 июня, пт
пт1800:00+7св336287 0.0 1010673
03:00+6всв337396 0.0 1010406
06:00+5в3478100 0.1 1010524
09:00+7вюв2461100 0.1 10101080
12:00+8ссв1255100 0.1 1010827
15:00+9ссз235899 0.0 1010924
18:00+7всв347973 0.4 1010709
21:00+7св2375100 0.2 1011808
19 июня, сб
сб1900:00+6св2282100 0.5 1013603
03:00+6ссв228367 0.2 1013319
06:00+6св338254 0.3 1013287
09:00+7с227654 0.0 1014370
12:00+8ссз327023 0.0 1013627
15:00+10ссз436621 0.0 1013730
18:00+10ссз556628 0.0 1013457
21:00+10с346720 0.0 1013280